Time,TemperatureF,DewpointF,PressureIn,WindDirection,WindDirectionDegrees,WindSpeedMPH,WindSpeedGustMPH,Humidity,HourlyPrecipIn,Conditions,Clouds,dailyrainin,SoftwareType,DateUTC
2013-12-03 00:10:00,43.5,39.6,29.43,NNW,337,0.0,-999.0,86,-99.99,,,0.00,Acu-Link.com,2013-12-03 05:10:00,
2013-12-03 00:25:00,42.8,39.2,29.44,NNE,22,0.0,-999.0,87,-99.99,,,0.00,Acu-Link.com,2013-12-03 05:25:00,
2013-12-03 00:40:00,42.6,39.6,29.43,ENE,67,0.0,-999.0,89,-99.99,,,0.00,Acu-Link.com,2013-12-03 05:40:00,
2013-12-03 00:56:00,42.4,39.4,29.43,SSE,157,0.0,-999.0,89,-99.99,,,0.00,Acu-Link.com,2013-12-03 05:56:00,
2013-12-03 01:11:00,42.8,39.8,29.42,South,180,0.0,-999.0,89,-99.99,,,0.00,Acu-Link.com,2013-12-03 06:11:00,
2013-12-03 01:26:00,44.1,41.1,29.42,South,180,2.2,-999.0,89,-99.99,,,0.00,Acu-Link.com,2013-12-03 06:26:00,
2013-12-03 01:41:00,43.5,40.2,29.41,SW,225,2.7,-999.0,88,-99.99,,,0.00,Acu-Link.com,2013-12-03 06:41:00,
2013-12-03 01:57:00,42.1,39.4,29.41,SW,225,3.7,-999.0,90,-99.99,,,0.00,Acu-Link.com,2013-12-03 06:57:00,
2013-12-03 02:12:00,41.0,38.6,29.44,SW,225,4.2,-999.0,91,-99.99,,,0.00,Acu-Link.com,2013-12-03 07:12:00,
2013-12-03 02:27:00,40.8,38.7,29.44,SW,225,3.2,-999.0,92,-99.99,,,0.00,Acu-Link.com,2013-12-03 07:27:00,
2013-12-03 02:42:00,41.2,39.1,29.44,SSW,202,2.7,-999.0,92,-99.99,,,0.00,Acu-Link.com,2013-12-03 07:42:00,
2013-12-03 02:58:00,42.6,40.4,29.43,SSW,202,2.2,-999.0,92,-99.99,,,0.00,Acu-Link.com,2013-12-03 07:58:00,
2013-12-03 03:13:00,42.6,40.4,29.44,SSW,202,2.7,-999.0,92,-99.99,,,0.00,Acu-Link.com,2013-12-03 08:13:00,
2013-12-03 03:28:00,43.3,41.1,29.45,SSW,202,3.2,-999.0,92,-99.99,,,0.00,Acu-Link.com,2013-12-03 08:28:00,
2013-12-03 03:43:00,43.9,41.7,29.44,SSW,202,2.7,-999.0,92,-99.99,,,0.00,Acu-Link.com,2013-12-03 08:43:00,
2013-12-03 03:59:00,43.7,41.5,29.44,SE,135,0.0,-999.0,92,-99.99,,,0.00,Acu-Link.com,2013-12-03 08:59:00,
2013-12-03 04:14:00,42.8,40.6,29.43,SSE,157,0.0,-999.0,92,-99.99,,,0.00,Acu-Link.com,2013-12-03 09:14:00,
2013-12-03 04:29:00,42.6,40.4,29.43,East,90,1.1,-999.0,92,-99.99,,,0.00,Acu-Link.com,2013-12-03 09:29:00,
2013-12-03 04:44:00,42.1,39.7,29.44,North,0,2.2,-999.0,91,-99.99,,,0.00,Acu-Link.com,2013-12-03 09:44:00,
2013-12-03 04:59:00,41.7,39.6,29.43,NNE,22,2.2,-999.0,92,-99.99,,,0.00,Acu-Link.com,2013-12-03 09:59:00,
2013-12-03 05:15:00,41.4,39.3,29.44,North,0,0.0,-999.0,92,-99.99,,,0.00,Acu-Link.com,2013-12-03 10:15:00,
2013-12-03 05:30:00,41.5,39.6,29.44,NE,45,0.0,-999.0,93,-99.99,,,0.00,Acu-Link.com,2013-12-03 10:30:00,
2013-12-03 05:45:00,41.4,39.5,29.44,NNE,22,0.0,-999.0,93,-99.99,,,0.00,Acu-Link.com,2013-12-03 10:45:00,
2013-12-03 06:01:00,40.5,38.9,29.44,NNE,22,2.7,-999.0,94,-99.99,,,0.00,Acu-Link.com,2013-12-03 11:01:00,
2013-12-03 06:16:00,40.3,38.7,29.44,NNE,22,1.7,-999.0,94,-99.99,,,0.00,Acu-Link.com,2013-12-03 11:16:00,
2013-12-03 06:31:00,39.9,38.6,29.44,NNE,22,2.7,-999.0,95,-99.99,,,0.00,Acu-Link.com,2013-12-03 11:31:00,
2013-12-03 06:46:00,39.4,38.1,29.44,NE,45,2.7,-999.0,95,-99.99,,,0.00,Acu-Link.com,2013-12-03 11:46:00,
2013-12-03 07:01:00,38.8,37.8,29.45,North,0,0.0,-999.0,96,-99.99,,,0.00,Acu-Link.com,2013-12-03 12:01:00,
2013-12-03 07:17:00,38.5,37.5,29.46,SSW,202,2.2,-999.0,96,-99.99,,,0.00,Acu-Link.com,2013-12-03 12:17:00,
2013-12-03 07:32:00,38.7,37.9,29.46,West,270,0.0,-999.0,97,-99.99,,,0.00,Acu-Link.com,2013-12-03 12:32:00,
2013-12-03 07:47:00,39.6,38.8,29.46,WSW,247,2.2,-999.0,97,-99.99,,,0.00,Acu-Link.com,2013-12-03 12:47:00,
2013-12-03 08:02:00,41.2,40.9,29.46,SSE,157,2.2,-999.0,99,-99.99,,,0.00,Acu-Link.com,2013-12-03 13:02:00,
2013-12-03 08:17:00,40.8,40.3,29.46,NE,45,1.7,-999.0,98,-99.99,,,0.00,Acu-Link.com,2013-12-03 13:17:00,
2013-12-03 08:33:00,40.8,40.0,29.47,NE,45,1.1,-999.0,97,-99.99,,,0.00,Acu-Link.com,2013-12-03 13:33:00,
2013-12-03 08:48:00,41.5,40.4,29.48,NNE,22,3.2,-999.0,96,-99.99,,,0.00,Acu-Link.com,2013-12-03 13:48:00,
2013-12-03 09:03:00,41.9,40.6,29.49,NE,45,3.2,-999.0,95,-99.99,,,0.00,Acu-Link.com,2013-12-03 14:03:00,
2013-12-03 09:18:00,42.4,41.1,29.48,NE,45,3.7,-999.0,95,-99.99,,,0.00,Acu-Link.com,2013-12-03 14:18:00,
2013-12-03 09:33:00,43.3,42.0,29.48,NE,45,3.7,-999.0,95,-99.99,,,0.00,Acu-Link.com,2013-12-03 14:33:00,
2013-12-03 09:49:00,44.6,43.0,29.49,NE,45,2.2,-999.0,94,-99.99,,,0.00,Acu-Link.com,2013-12-03 14:49:00,
2013-12-03 10:04:00,45.9,44.0,29.49,NE,45,2.7,-999.0,93,-99.99,,,0.00,Acu-Link.com,2013-12-03 15:04:00,
2013-12-03 10:19:00,47.5,45.6,29.49,ESE,112,3.7,-999.0,93,-99.99,,,0.00,Acu-Link.com,2013-12-03 15:19:00,
2013-12-03 10:34:00,49.3,46.8,29.49,ESE,112,3.7,-999.0,91,-99.99,,,0.00,Acu-Link.com,2013-12-03 15:34:00,
2013-12-03 10:49:00,49.8,47.0,29.51,ESE,112,2.2,-999.0,90,-99.99,,,0.00,Acu-Link.com,2013-12-03 15:49:00,
2013-12-03 11:05:00,51.4,47.7,29.51,ESE,112,3.2,-999.0,87,-99.99,,,0.00,Acu-Link.com,2013-12-03 16:05:00,
2013-12-03 11:20:00,52.9,48.5,29.50,East,90,4.2,-999.0,85,-99.99,,,0.00,Acu-Link.com,2013-12-03 16:20:00,
2013-12-03 11:35:00,54.3,48.6,29.50,ESE,112,2.2,-999.0,81,-99.99,,,0.00,Acu-Link.com,2013-12-03 16:35:00,
2013-12-03 11:50:00,53.4,48.7,29.49,South,180,4.2,-999.0,84,-99.99,,,0.00,Acu-Link.com,2013-12-03 16:50:00,
2013-12-03 12:06:00,52.9,48.5,29.49,South,180,4.7,-999.0,85,-99.99,,,0.00,Acu-Link.com,2013-12-03 17:06:00,
2013-12-03 12:21:00,53.1,48.4,29.49,SSE,157,3.7,-999.0,84,-99.99,,,0.00,Acu-Link.com,2013-12-03 17:21:00,
2013-12-03 12:36:00,53.4,48.7,29.48,SSE,157,4.7,-999.0,84,-99.99,,,0.00,Acu-Link.com,2013-12-03 17:36:00,
2013-12-03 12:51:00,54.0,49.0,29.47,South,180,6.3,-999.0,83,-99.99,,,0.00,Acu-Link.com,2013-12-03 17:51:00,
2013-12-03 13:07:00,54.3,48.6,29.47,ESE,112,5.8,-999.0,81,-99.99,,,0.00,Acu-Link.com,2013-12-03 18:07:00,
2013-12-03 13:22:00,54.3,48.3,29.47,South,180,6.3,-999.0,80,-99.99,,,0.00,Acu-Link.com,2013-12-03 18:22:00,
2013-12-03 13:37:00,55.0,49.3,29.46,SE,135,5.8,-999.0,81,-99.99,,,0.00,Acu-Link.com,2013-12-03 18:37:00,
2013-12-03 13:52:00,56.5,49.4,29.45,ENE,67,5.8,-999.0,77,-99.99,,,0.00,Acu-Link.com,2013-12-03 18:52:00,
2013-12-03 14:08:00,55.6,49.2,29.44,SE,135,8.3,-999.0,79,-99.99,,,0.00,Acu-Link.com,2013-12-03 19:08:00,
2013-12-03 14:23:00,55.2,49.1,29.43,ESE,112,7.3,-999.0,80,-99.99,,,0.00,Acu-Link.com,2013-12-03 19:23:00,
2013-12-03 14:38:00,55.6,49.5,29.42,ESE,112,5.3,-999.0,80,-99.99,,,0.00,Acu-Link.com,2013-12-03 19:38:00,
2013-12-03 14:53:00,55.0,48.9,29.43,SSE,157,4.7,-999.0,80,-99.99,,,0.00,Acu-Link.com,2013-12-03 19:53:00,
2013-12-03 15:08:00,55.0,48.9,29.43,East,90,5.8,-999.0,80,-99.99,,,0.00,Acu-Link.com,2013-12-03 20:08:00,
2013-12-03 15:24:00,55.0,48.9,29.43,ESE,112,4.7,-999.0,80,-99.99,,,0.00,Acu-Link.com,2013-12-03 20:24:00,
2013-12-03 15:39:00,54.9,49.2,29.43,SE,135,5.3,-999.0,81,-99.99,,,0.00,Acu-Link.com,2013-12-03 20:39:00,
2013-12-03 15:54:00,54.3,48.9,29.44,SSE,157,5.8,-999.0,82,-99.99,,,0.00,Acu-Link.com,2013-12-03 20:54:00,
2013-12-03 16:09:00,54.1,49.1,29.44,South,180,5.3,-999.0,83,-99.99,,,0.00,Acu-Link.com,2013-12-03 21:09:00,
2013-12-03 16:24:00,54.0,49.0,29.44,South,180,3.7,-999.0,83,-99.99,,,0.00,Acu-Link.com,2013-12-03 21:24:00,
2013-12-03 16:40:00,53.8,48.8,29.44,ESE,112,4.2,-999.0,83,-99.99,,,0.00,Acu-Link.com,2013-12-03 21:40:00,
2013-12-03 16:57:00,53.4,48.7,29.44,East,90,3.2,-999.0,84,-99.99,,,0.00,Acu-Link.com,2013-12-03 21:57:00,
2013-12-03 17:13:00,52.7,48.6,29.43,East,90,3.7,-999.0,86,-99.99,,,0.00,Acu-Link.com,2013-12-03 22:13:00,
2013-12-03 17:28:00,52.3,48.2,29.44,East,90,4.2,-999.0,86,-99.99,,,0.00,Acu-Link.com,2013-12-03 22:28:00,
2013-12-03 17:43:00,52.3,48.2,29.45,East,90,3.2,-999.0,86,-99.99,,,0.00,Acu-Link.com,2013-12-03 22:43:00,
2013-12-03 17:58:00,52.2,48.1,29.45,ESE,112,3.7,-999.0,86,-99.99,,,0.00,Acu-Link.com,2013-12-03 22:58:00,
2013-12-03 18:13:00,51.8,48.1,29.44,ENE,67,4.2,-999.0,87,-99.99,,,0.00,Acu-Link.com,2013-12-03 23:13:00,
2013-12-03 18:29:00,51.1,47.7,29.44,ENE,67,3.2,-999.0,88,-99.99,,,0.00,Acu-Link.com,2013-12-03 23:29:00,
2013-12-03 18:44:00,50.0,47.2,29.44,NE,45,2.2,-999.0,90,-99.99,,,0.00,Acu-Link.com,2013-12-03 23:44:00,
2013-12-03 18:59:00,49.1,46.9,29.44,NE,45,2.7,-999.0,92,-99.99,,,0.00,Acu-Link.com,2013-12-03 23:59:00,
2013-12-03 19:14:00,48.6,46.4,29.43,NE,45,3.2,-999.0,92,-99.99,,,0.00,Acu-Link.com,2013-12-04 00:14:00,
2013-12-03 19:29:00,47.8,45.9,29.44,NE,45,1.7,-999.0,93,-99.99,,,0.00,Acu-Link.com,2013-12-04 00:29:00,
2013-12-03 19:45:00,47.5,45.9,29.44,NNE,22,2.2,-999.0,94,-99.99,,,0.00,Acu-Link.com,2013-12-04 00:45:00,
2013-12-03 20:00:00,47.3,45.7,29.44,NE,45,1.7,-999.0,94,-99.99,,,0.00,Acu-Link.com,2013-12-04 01:00:00,
2013-12-03 20:15:00,47.7,46.1,29.45,North,0,2.2,-999.0,94,-99.99,,,0.00,Acu-Link.com,2013-12-04 01:15:00,
2013-12-03 20:30:00,48.2,46.6,29.46,NNE,22,0.0,-999.0,94,-99.99,,,0.00,Acu-Link.com,2013-12-04 01:30:00,
2013-12-03 20:46:00,48.6,47.0,29.46,NE,45,2.2,-999.0,94,-99.99,,,0.00,Acu-Link.com,2013-12-04 01:46:00,
2013-12-03 21:01:00,48.2,46.3,29.45,NE,45,0.0,-999.0,93,-99.99,,,0.00,Acu-Link.com,2013-12-04 02:01:00,
2013-12-03 21:16:00,47.8,45.9,29.44,SSE,157,1.7,-999.0,93,-99.99,,,0.00,Acu-Link.com,2013-12-04 02:16:00,
2013-12-03 21:31:00,48.2,46.3,29.45,ESE,112,2.2,-999.0,93,-99.99,,,0.00,Acu-Link.com,2013-12-04 02:31:00,
2013-12-03 21:46:00,48.9,47.0,29.45,NE,45,3.7,-999.0,93,-99.99,,,0.00,Acu-Link.com,2013-12-04 02:46:00,
2013-12-03 22:02:00,48.2,46.3,29.45,NNE,22,2.2,-999.0,93,-99.99,,,0.00,Acu-Link.com,2013-12-04 03:02:00,
2013-12-03 22:17:00,48.2,46.3,29.46,North,0,1.7,-999.0,93,-99.99,,,0.00,Acu-Link.com,2013-12-04 03:17:00,
2013-12-03 22:32:00,48.6,46.7,29.45,ENE,67,2.2,-999.0,93,-99.99,,,0.00,Acu-Link.com,2013-12-04 03:32:00,
2013-12-03 22:47:00,48.2,46.3,29.46,ENE,67,1.1,-999.0,93,-99.99,,,0.00,Acu-Link.com,2013-12-04 03:47:00,
2013-12-03 23:18:00,47.5,46.1,29.46,South,180,1.7,-999.0,95,-99.99,,,0.00,Acu-Link.com,2013-12-04 04:18:00,
2013-12-03 23:33:00,47.3,45.9,29.47,South,180,1.7,-999.0,95,-99.99,,,0.00,Acu-Link.com,2013-12-04 04:33:00,
2013-12-03 23:48:00,46.9,45.5,29.48,West,270,2.2,-999.0,95,-99.99,,,0.00,Acu-Link.com,2013-12-04 04:48:00,